STARLINK-35095

Last updated on Tue Sep 16 2025 00:02:07 GMT+0000 (Coordinated Universal Time)

1 65425U 25192X 25258.58341435 -.01477673 00000+0 -15574-1 0 9995 2 65425 53.1593 338.0581 0001162 68.8875 189.5639 15.66411412 3623
UTC large
Height (km)
Speed (km/s)
/
Latitude / Longitude
Inclination (degrees)
Orbital Period (minutes)
Azimuth
Elevation
Range (km)
Doppler Factor

Next 0 passes for location: London (51.5072 / 0.1276)

Sorry there are no passes over London.